Weather History for Sheridan, WY

Change the Weather History Date:

Monday, October 29, 2012

  Actual Average Record
Temperature  
Mean Temperature 49 °F 41 °F  
Max Temperature 66 °F 55 °F 83 °F (1968)
Min Temperature 31 °F 27 °F -12 °F (1917)
Degree Days  
Heating Degree Days 16 24  
Month to date heating degree days 597 555  
Since 1 July heating degree days 747 858  
Cooling Degree Days 0 0  
Month to date cooling degree days 0 0  
Year to date cooling degree days 664 418  
Moisture  
Dew Point 35 °F    
Average Humidity 62    
Maximum Humidity 89    
Minimum Humidity 34    
Precipitation  
Precipitation 0.00 in 0.03 in 0.71 in (1922)
Month to date precipitation 0.95 1.35  
Year to date precipitation 7.94 12.83  
Sea Level Pressure  
Sea Level Pressure 29.97 in    
Wind  
Wind Speed 3 mph (SW)    
Max Wind Speed 15 mph    
Max Gust Speed 17 mph    
Visibility 10 miles    
Events      
T = Trace of Precipitation, MM = Missing Value Source: NWS Daily Summary

Daily Weather History Graph

Daily Weather History Graph

Search for Another Location

Airport:

Trip Planner

Search our weather history database for the weather conditions in past years. The results will help you decide how hot, cold, wet, or windy it might be!

Date:

Astronomy

Oct. 29, 2012 Rise Set
Actual Time 7:42 AM MDT 5:59 PM MDT
Civil Twilight 7:12 AM MDT 6:30 PM MDT
Nautical Twilight 6:37 AM MDT 7:04 PM MDT
Astronomical Twilight 6:03 AM MDT 7:38 PM MDT
Moon 5:51 PM MDT (10/29) 7:37 AM MDT (10/29)
Length of Visible Light 11h 18m
Length of Day
10h 17m
Full, 100% of the Moon is Illuminated
Oct 29
Full
Oct 29
Full
Nov 6
Last Quarter
Nov 13
New
Nov 20
First Quarter

Hourly Weather History & Observations

Time (MDT) Temp. Windchill Dew Point Humidity Pressure Visibility Wind Dir Wind Speed Gust Speed Precip Events Conditions
12:53 AM 35.1 °F 31.0 °F 30.0 °F 82% 29.96 in 10.0 mi NNE 4.6 mph - N/A   Clear
1:53 AM 35.1 °F - 30.9 °F 85% 29.95 in 10.0 mi Calm Calm - N/A   Clear
2:53 AM 34.0 °F 28.8 °F 30.9 °F 89% 29.96 in 10.0 mi SW 5.8 mph - N/A   Clear
3:53 AM 32.0 °F - 28.9 °F 88% 29.96 in 10.0 mi Calm Calm - N/A   Partly Cloudy
4:53 AM 33.1 °F - 28.9 °F 85% 29.97 in 10.0 mi Calm Calm - N/A   Clear
5:53 AM 34.0 °F - 30.0 °F 85% 30.01 in 10.0 mi Calm Calm - N/A   Mostly Cloudy
6:53 AM 39.0 °F 35.7 °F 35.1 °F 86% 29.99 in 10.0 mi NNW 4.6 mph - N/A   Overcast
7:53 AM 37.0 °F 33.3 °F 34.0 °F 89% 30.02 in 10.0 mi South 4.6 mph - N/A   Overcast
8:53 AM 41.0 °F 37.1 °F 36.0 °F 82% 30.01 in 10.0 mi South 5.8 mph - N/A   Scattered Clouds
9:53 AM 50.0 °F - 35.1 °F 57% 30.00 in 10.0 mi Calm Calm - N/A   Clear
10:53 AM 57.0 °F - 37.0 °F 47% 29.95 in 10.0 mi Calm Calm - N/A   Clear
11:53 AM 62.1 °F - 35.1 °F 37% 29.93 in 10.0 mi Calm Calm - N/A   Partly Cloudy
12:53 PM 61.0 °F - 37.9 °F 42% 29.92 in 10.0 mi Calm Calm - N/A   Overcast
1:53 PM 63.0 °F - 34.0 °F 34% 29.91 in 10.0 mi Calm Calm - N/A   Overcast
2:53 PM 61.0 °F - 39.0 °F 44% 29.91 in 10.0 mi Calm Calm - N/A   Mostly Cloudy
3:53 PM 63.0 °F - 37.0 °F 38% 29.92 in 10.0 mi North 6.9 mph - N/A   Overcast
4:53 PM 63.0 °F - 39.0 °F 41% 29.94 in 10.0 mi NNW 6.9 mph - N/A   Clear
5:53 PM 48.9 °F - 39.0 °F 69% 29.99 in 10.0 mi WSW 3.5 mph - N/A   Clear
6:53 PM 46.0 °F 43.9 °F 37.0 °F 71% 29.99 in 10.0 mi South 4.6 mph - N/A   Clear
7:53 PM 45.0 °F 42.6 °F 37.0 °F 74% 30.01 in 10.0 mi SSW 4.6 mph - N/A   Clear
8:53 PM 43.0 °F 40.3 °F 35.1 °F 74% 30.03 in 10.0 mi SW 4.6 mph - N/A   Clear
9:53 PM 46.9 °F - 35.1 °F 63% 29.99 in 10.0 mi SSW 8.1 mph - N/A   Partly Cloudy
10:53 PM 44.1 °F 42.5 °F 36.0 °F 73% 29.98 in 10.0 mi SSE 3.5 mph - N/A   Partly Cloudy
11:53 PM 43.0 °F 40.3 °F 34.0 °F 71% 29.98 in 10.0 mi NNW 4.6 mph - N/A   Clear